#timestamp,LO_Frequency,Hit,StdDev 
1656950415.3,286047000.7,N
1656950435.2,286047000.4,N
1656950455.9,286047001.5,N
1656950475.7,286046999.7,N
1656950495.6,286047004.2,Y
1656950515.4,286047002.2,P
1656950535.2,286047002.7,N
1656950555.1,286046999.9,N
1656950556.0,286046999.9,N
1656950575.8,286047002.6,N
1656950595.7,286047000.7,N
1656950615.5,286047000.9,N
1656950635.3,286046993.7,Y
1656950655.2,286046993.6,P
1656950675.0,286046994.4,N
1656950675.9,286046994.4,N
1656950695.8,286046997.4,N
1656950715.6,286046993.8,N
1656950735.4,286046994.4,N
1656950755.3,286046993.9,N
1656950775.1,286046995.0,N
1656950795.8,286046997.3,N
1656950815.7,286046995.4,N
1656950835.5,286046995.2,N
1656950855.4,286046996.3,N
1656950875.2,286046994.0,Y
1656950895.0,286046996.7,P
1656950895.9,286046996.7,P
1656950915.8,286046996.5,P
1656950935.6,286046998.8,N
1656950955.5,286047001.0,N
1656950975.3,286046999.4,N
1656950995.1,286046999.3,N
1656951015.9,286046997.0,N
1656951035.7,286046996.7,N
1656951055.6,286046998.9,N
1656951075.4,286046998.4,N
1656951095.2,286047000.1,N
1656951115.1,286047000.6,N
1656951116.0,286047000.6,N
1656951135.8,286047001.2,N
1656951155.6,286046997.0,N
1656951175.5,286046997.1,N
1656951195.3,286046996.9,N
1656951215.2,286046996.5,N
1656951235.9,286046998.9,N
1656951255.7,286046998.3,N
1656951275.6,286046998.7,N
1656951295.4,286047001.2,N
1656951315.2,286047000.0,N
1656951335.1,286046998.4,N
1656951336.0,286046998.4,N
1656951355.8,286046999.6,N
1656951375.7,286046997.1,N
1656951395.5,286046997.7,N
1656951415.3,286046996.7,N
1656951435.2,286046998.8,N
1656951455.0,286047000.0,N
1656951455.9,286047000.0,N
1656951475.8,286047000.8,N
1656951495.6,286047000.1,N
1656951515.4,286047001.7,N
1656951535.3,286047004.4,N
1656951555.1,286047003.7,N
1656951575.8,286047002.6,N
1656951595.7,286047000.7,N
1656951615.5,286047000.2,N
1656951635.3,286047000.8,N
1656951655.2,286046999.1,N
1656951675.0,286046999.2,N
1656951675.9,286046999.2,N
1656951695.8,286046999.4,N
1656951715.6,286046999.1,N
1656951735.4,286046998.6,N
1656951755.3,286046999.1,N
1656951775.1,286046996.7,N
1656951795.9,286046997.3,N
1656951815.7,286046999.4,N
1656951835.5,286046998.4,N
1656951855.4,286046999.2,N
1656951875.2,286046999.2,N
1656951895.0,286046999.4,N
1656951895.9,286046999.4,N
1656951915.8,286046999.5,N
1656951935.6,286046995.6,N
1656951955.5,286046995.8,N
1656951975.3,286046993.5,Y
1656951995.1,286046996.4,P
1656952015.9,286046998.0,N
1656952035.7,286046996.9,N
1656952055.5,286046998.9,N
1656952075.4,286046999.5,N
1656952095.2,286046999.6,N
1656952115.1,286046998.3,N
1656952116.0,286046998.3,N
1656952135.8,286047001.2,N
1656952155.6,286047002.4,N
1656952175.5,286047000.7,N
1656952195.3,286046999.3,N
1656952215.2,286046998.2,N
1656952235.9,286047001.2,N
1656952255.7,286047001.0,N
1656952275.6,286047000.8,N
1656952295.4,286046998.1,N
1656952315.2,286046998.3,N
1656952335.1,286047002.4,N
1656952336.0,286047002.4,N
1656952355.8,286047001.3,N
1656952375.7,286047004.1,N
1656952395.5,286047002.3,N
1656952415.3,286047001.5,N
1656952435.2,286047003.2,N
1656952455.0,286047002.3,N
1656952455.9,286047002.3,N
1656952475.7,286047001.7,N
1656952495.6,286047005.4,N
1656952515.4,286047005.4,N
1656952535.3,286047005.2,N
1656952555.1,286047003.0,N
1656952556.0,286047003.0,N
1656952575.8,286047004.0,N
1656952595.7,286047003.4,N
1656952615.5,286047003.4,N
1656952635.3,286047001.3,N
1656952655.2,286047001.1,N
1656952675.0,286047002.0,N
1656952675.9,286047002.0,N
1656952695.8,286047000.2,N
1656952715.6,286047006.0,Y
1656952735.4,286047000.0,P
1656952755.3,286046998.2,N
1656952775.1,286046995.3,P
1656952795.9,286046995.5,N
1656952815.7,286046994.9,N
1656952835.5,286046996.1,N
1656952855.4,286046995.3,N
1656952875.2,286046993.3,N
1656952895.0,286046993.8,N
1656952895.9,286046993.8,N
1656952915.8,286046993.4,N
1656952935.6,286046992.0,Y
1656952955.5,286046997.2,P
1656952975.3,286046996.7,P
1656952995.1,286047011.9,P
1656953015.9,286046999.4,N
1656953035.7,286047001.2,N
1656953055.6,286047000.8,N
1656953075.4,286046998.1,N
1656953095.2,286046998.6,N
1656953115.1,286046999.7,N
1656953116.0,286046999.7,N
1656953135.8,286047004.4,N
1656953155.6,286047001.4,N
1656953175.5,286047002.2,N
1656953195.3,286047001.7,N
1656953215.2,286047003.9,N
1656953235.9,286047005.1,N
1656953255.7,286047006.7,N
1656953275.6,286047006.5,N
1656953295.4,286047008.5,N
1656953315.2,286047009.0,N
1656953335.1,286047008.4,N
1656953336.0,286047008.4,N
1656953355.8,286047009.1,N
1656953375.7,286047005.0,N
1656953395.5,286047004.3,N
1656953415.3,286047005.2,N
1656953435.2,286047003.5,N
1656953455.0,286047001.3,N
1656953455.9,286047001.3,N
1656953475.7,286046999.7,N
1656953495.6,286047000.4,N
1656953515.4,286047001.1,N
1656953535.3,286046998.9,N
1656953555.1,286047000.5,N
1656953556.0,286047000.5,N
1656953575.8,286047002.8,N
1656953595.7,286047000.3,N
1656953615.5,286046998.2,N
1656953635.3,286047000.8,N
1656953655.2,286047001.2,N
1656953675.0,286047000.5,N
1656953675.9,286047000.5,N
1656953695.8,286047000.7,N
1656953715.6,286046998.1,N
1656953735.4,286047000.5,N
1656953755.3,286047001.2,N
1656953775.1,286047000.9,N
1656953795.9,286046999.9,N
1656953815.7,286047000.9,N
1656953835.5,286047001.1,N
1656953855.4,286046998.2,N
1656953875.2,286047001.2,N
1656953895.0,286047000.3,N
1656953895.9,286047000.3,N
1656953915.8,286047002.2,N
1656953935.6,286047001.7,N
1656953955.5,286047003.3,N
1656953975.3,286047005.2,Y
1656953995.1,286047003.6,P
